This is the latest recevied weather packets stored in our database for station/object OK1ALX-6. If no packets are shown the sender has not sent any weather packets the latest 10 day(s).
| Time | Temp. | Humidity | Pressure | Rain* | Wind** | Luminosity | Snow |
|---|---|---|---|---|---|---|---|
| 1777730403 | 22.78° C | 26% | 1025.1 hPa | 0 mm | - | 471 W/m² | - |
| 1777729804 | 23.33° C | 27% | 1025.1 hPa | 0 mm | - | 544 W/m² | - |
| 1777729203 | 22.78° C | 26% | 1025 hPa | 0 mm | - | 553 W/m² | - |
| 1777728603 | 23.33° C | 26% | 1025.2 hPa | 0 mm | - | 564 W/m² | - |
| 1777728003 | 23.89° C | 26% | 1025.5 hPa | 0 mm | - | 601 W/m² | - |
| 1777727403 | 22.22° C | 26% | 1025.9 hPa | 0 mm | - | 626 W/m² | - |
| 1777726803 | 22.22° C | 26% | 1025.9 hPa | 0 mm | - | 620 W/m² | - |
| 1777726203 | 22.22° C | 27% | 1026 hPa | 0 mm | - | 571 W/m² | - |
| 1777725603 | 22.22° C | 27% | 1026.3 hPa | 0 mm | - | 612 W/m² | - |
| 1777725003 | 22.78° C | 27% | 1026.3 hPa | 0 mm | - | 259 W/m² | - |
| 1777724403 | 21.67° C | 29% | 1026.5 hPa | 0 mm | - | 607 W/m² | - |
| 1777723803 | 23.33° C | 27% | 1026.5 hPa | 0 mm | - | 368 W/m² | - |
| 1777723203 | 22.22° C | 26% | 1026.8 hPa | 0 mm | - | 629 W/m² | - |
| 1777722603 | 21.67° C | 28% | 1026.8 hPa | 0 mm | - | 659 W/m² | - |
| 1777721403 | 22.22° C | 30% | 1027.3 hPa | 0 mm | - | 622 W/m² | - |
| 1777720803 | 21.11° C | 30% | 1027.7 hPa | 0 mm | - | 326 W/m² | - |
| 1777720208 | 21.67° C | 30% | 1027.3 hPa | 0 mm | - | 664 W/m² | - |
| 1777719603 | 20.56° C | 32% | 1027.8 hPa | 0 mm | - | 666 W/m² | - |
| 1777719003 | 21.11° C | 31% | 1027.6 hPa | 0 mm | - | 672 W/m² | - |
| 1777718403 | 20.56° C | 31% | 1027.8 hPa | 0 mm | - | 658 W/m² | - |
| 1777717803 | 21.11° C | 32% | 1027.8 hPa | 0 mm | - | 685 W/m² | - |
| 1777717203 | 20.56° C | 35% | 1028.1 hPa | 0 mm | - | 691 W/m² | - |
| 1777716603 | 20.56° C | 36% | 1028.3 hPa | 0 mm | - | 704 W/m² | - |
| 1777716004 | 20.56° C | 33% | 1028.3 hPa | 0 mm | - | 713 W/m² | - |
| 1777714803 | 21.11° C | 34% | 1028.4 hPa | 0 mm | - | 672 W/m² | - |
* Rain latest hour (hover to see other rain measurements)
** Current wind speed in m/s (hover to see current wind gust speed)